Weather History for Osceola Municipal, IA

Change the Weather History Date:

Friday, February 14, 2014

  Actual Average (KLWD) Record (KLWD)
Temperature  
Mean Temperature 11 °F 28 °F  
Max Temperature 20 °F 37 °F 68 °F (1967)
Min Temperature 2 °F 19 °F 0 °F (2007)
Degree Days  
Heating Degree Days 54 37  
Month to date heating degree days 541  
Since 1 July heating degree days 4233  
Cooling Degree Days 0 0  
Month to date cooling degree days 0  
Year to date cooling degree days 0  
Moisture  
Dew Point 9 °F    
Average Humidity 78    
Maximum Humidity 91    
Minimum Humidity 63    
Precipitation  
Precipitation 0.06 in 0.04 in 0.90 in (1992)
Month to date precipitation 0.67  
Sea Level Pressure  
Sea Level Pressure 29.89 in    
Wind  
Wind Speed 9 mph (NNW)    
Max Wind Speed 20 mph    
Max Gust Speed 24 mph    
Visibility 8 miles    
Events Snow    
T = Trace of Precipitation, MM = Missing Value Source: NWS Daily Summary

Daily Weather History Graph

Daily Weather History Graph

Search for Another Location

Airport:

Trip Planner

Search our weather history database for the weather conditions in past years. The results will help you decide how hot, cold, wet, or windy it might be!

Date:

Astronomy

Feb. 14, 2014 Rise Set
Actual Time 7:10 AM CST 5:47 PM CST
Civil Twilight 6:42 AM CST 6:16 PM CST
Nautical Twilight 6:09 AM CST 6:48 PM CST
Astronomical Twilight 5:38 AM CST 7:20 PM CST
Moon 5:52 PM CST (2/14) 6:37 AM CST (2/14)
Length of Visible Light 11h 34m
Length of Day
10h 37m
Full, 100% of the Moon is Illuminated
Feb 14
Full
Feb 14
Full
Feb 22
Last Quarter
Mar 1
New
Mar 8
First Quarter

Hourly Weather History & Observations

Time (CST) Temp. Windchill Dew Point Humidity Pressure Visibility Wind Dir Wind Speed Gust Speed Precip Events Conditions
12:15 AM 20.1 °F 12.3 °F 11.5 °F 69% 29.72 in 10.0 mi North 5.8 mph - N/A   Scattered Clouds
12:35 AM 19.4 °F 12.8 °F 11.8 °F 72% 29.72 in 10.0 mi North 4.6 mph - N/A   Clear
12:55 AM 19.4 °F 14.3 °F 12.2 °F 74% 29.72 in 10.0 mi NNW 3.5 mph - N/A   Scattered Clouds
1:15 AM 20.1 °F 13.6 °F 12.2 °F 71% 29.71 in 10.0 mi North 4.6 mph - N/A   Mostly Cloudy
1:35 AM 20.1 °F 11.3 °F 12.0 °F 71% 29.70 in 10.0 mi NNE 6.9 mph - N/A   Overcast
1:55 AM 20.3 °F 11.5 °F 12.0 °F 70% 29.73 in 10.0 mi North 6.9 mph - N/A   Overcast
2:15 AM 20.5 °F 14.0 °F 11.8 °F 69% 29.76 in 10.0 mi West 4.6 mph - N/A   Overcast
2:35 AM 20.1 °F 13.6 °F 12.7 °F 73% 29.72 in 3.0 mi NE 4.6 mph - N/A Snow Light Snow
2:55 AM 19.4 °F - 14.0 °F 80% 29.72 in 3.0 mi Calm Calm - N/A Snow Light Snow
3:15 AM 19.0 °F 11.1 °F 15.4 °F 86% 29.69 in 1.5 mi East 5.8 mph - N/A Snow Light Snow
3:35 AM 18.1 °F 12.9 °F 15.3 °F 88% 29.69 in 1.8 mi East 3.5 mph - N/A Snow Light Snow
4:15 AM 18.0 °F 8.7 °F 14.9 °F 88% 29.69 in 3.0 mi NE 6.9 mph - 0.01 in Snow Light Snow
4:35 AM 17.4 °F 7.1 °F 14.9 °F 90% 29.68 in 1.0 mi NE 8.1 mph - 0.02 in Snow Light Snow
4:55 AM 17.2 °F 7.8 °F 14.9 °F 91% 29.68 in 0.8 mi NE 6.9 mph - 0.02 in Snow Snow
5:15 AM 17.1 °F 5.8 °F 14.7 °F 91% 29.68 in 1.5 mi NE 9.2 mph - 0.01 in Snow Light Snow
5:35 AM 16.5 °F 5.1 °F 14.0 °F 90% 29.69 in 2.0 mi NNE 9.2 mph - 0.03 in Snow Light Snow
5:55 AM 16.2 °F 3.2 °F 13.5 °F 89% 29.69 in 1.8 mi North 11.5 mph - 0.04 in Snow Light Snow
6:15 AM 15.6 °F 1.2 °F 12.9 °F 89% 29.71 in 1.0 mi North 13.8 mph - N/A Snow Snow
6:35 AM 15.6 °F 0.6 °F 13.1 °F 90% 29.72 in 1.2 mi North 15.0 mph 20.7 mph N/A Snow Light Snow
6:55 AM 15.6 °F 0.6 °F 12.9 °F 89% 29.73 in 1.8 mi North 15.0 mph 19.6 mph N/A Snow Light Snow
7:15 AM 15.4 °F 0.4 °F 12.7 °F 89% 29.76 in 4.0 mi North 15.0 mph - N/A Snow Light Snow
7:35 AM 15.3 °F -0.9 °F 12.2 °F 88% 29.77 in 2.5 mi North 17.3 mph 21.9 mph N/A Snow Light Snow
7:55 AM 15.1 °F -0.6 °F 12.0 °F 88% 29.79 in 4.0 mi North 16.1 mph - N/A Snow Light Snow
8:15 AM 15.3 °F 0.8 °F 12.2 °F 88% 29.81 in 5.0 mi NNW 13.8 mph 18.4 mph N/A Snow Light Snow
8:35 AM 14.5 °F -2.7 °F 10.4 °F 84% 29.82 in 7.0 mi NNW 19.6 mph 24.2 mph N/A   Overcast
8:55 AM 14.5 °F -1.8 °F 10.2 °F 83% 29.83 in 10.0 mi NNW 17.3 mph - N/A   Overcast
9:15 AM 14.0 °F -1.4 °F 9.3 °F 82% 29.84 in 10.0 mi NNW 15.0 mph - N/A   Overcast
9:35 AM 14.4 °F -0.4 °F 9.3 °F 80% 29.86 in 7.0 mi North 13.8 mph 21.9 mph N/A Snow Light Snow
9:55 AM 14.9 °F -0.8 °F 9.7 °F 80% 29.86 in 10.0 mi NNW 16.1 mph - N/A   Overcast
10:15 AM 14.9 °F 2.3 °F 10.4 °F 82% 29.87 in 10.0 mi NNW 10.4 mph - N/A   Overcast
10:35 AM 15.3 °F 0.2 °F 10.0 °F 80% 29.88 in 4.0 mi NNW 15.0 mph - N/A Snow Light Snow
10:55 AM 16.0 °F 0.1 °F 10.4 °F 79% 29.89 in 4.0 mi NNW 17.3 mph 23.0 mph N/A Snow Light Snow
11:15 AM 17.1 °F 2.0 °F 10.8 °F 76% 29.90 in 7.0 mi NNW 16.1 mph 21.9 mph N/A Snow Light Snow
11:35 AM 16.3 °F 2.1 °F 10.0 °F 76% 29.91 in 7.0 mi NNW 13.8 mph - N/A   Overcast
11:55 AM 17.2 °F 2.7 °F 10.6 °F 75% 29.92 in 5.0 mi NNW 15.0 mph - N/A   Haze
12:15 PM 17.2 °F 3.9 °F 10.6 °F 75% 29.91 in 5.0 mi NNW 12.7 mph 19.6 mph N/A Snow Light Snow
12:35 PM 16.7 °F 2.6 °F 9.9 °F 74% 29.92 in 10.0 mi NW 13.8 mph - N/A   Overcast
12:55 PM 17.4 °F 2.9 °F 9.5 °F 71% 29.92 in 10.0 mi NNW 15.0 mph - N/A   Mostly Cloudy
1:15 PM 17.8 °F 2.9 °F 10.4 °F 73% 29.93 in 10.0 mi NW 16.1 mph - N/A   Scattered Clouds
1:35 PM 18.1 °F 3.9 °F 9.7 °F 70% 29.93 in 10.0 mi NW 15.0 mph 20.7 mph N/A   Scattered Clouds
1:55 PM 17.2 °F 2.2 °F 8.6 °F 69% 29.94 in 10.0 mi NW 16.1 mph - N/A   Scattered Clouds
2:15 PM 17.2 °F 1.7 °F 7.9 °F 67% 29.94 in 10.0 mi NW 17.3 mph - N/A   Clear
2:35 PM 17.2 °F 2.7 °F 8.1 °F 67% 29.95 in 7.0 mi NNW 15.0 mph - N/A   Clear
2:55 PM 17.4 °F 4.1 °F 7.9 °F 66% 29.95 in 10.0 mi NNW 12.7 mph - N/A   Clear
3:15 PM 17.8 °F 3.4 °F 8.1 °F 66% 29.96 in 10.0 mi NW 15.0 mph 19.6 mph N/A   Clear
3:35 PM 18.0 °F 3.1 °F 7.3 °F 63% 29.97 in 10.0 mi NW 16.1 mph 20.7 mph N/A   Clear
3:55 PM 17.6 °F 3.2 °F 7.7 °F 65% 29.98 in 10.0 mi NW 15.0 mph - N/A   Clear
4:15 PM 17.6 °F 3.2 °F 7.3 °F 64% 29.99 in 10.0 mi NW 15.0 mph - N/A   Clear
4:35 PM 17.4 °F 2.9 °F 7.2 °F 64% 29.99 in 10.0 mi WNW 15.0 mph - N/A   Clear
4:55 PM 17.1 °F 3.6 °F 6.8 °F 64% 29.99 in 10.0 mi NW 12.7 mph - N/A   Clear
5:15 PM 16.5 °F 5.1 °F 7.2 °F 67% 30.01 in 10.0 mi NW 9.2 mph - N/A   Clear
5:35 PM 15.8 °F 3.4 °F 6.4 °F 67% 30.02 in 10.0 mi NW 10.4 mph - N/A   Clear
5:55 PM 14.5 °F 2.7 °F 6.1 °F 69% 30.03 in 10.0 mi NW 9.2 mph - N/A   Clear
6:15 PM 14.0 °F 1.2 °F 6.1 °F 71% 30.03 in 10.0 mi NW 10.4 mph - N/A   Clear
6:35 PM 13.3 °F 1.1 °F 5.7 °F 72% 30.05 in 10.0 mi NW 9.2 mph - N/A   Clear
6:55 PM 12.7 °F 1.4 °F 5.4 °F 72% 30.04 in 10.0 mi NW 8.1 mph - N/A   Clear
7:15 PM 12.0 °F -0.4 °F 4.8 °F 73% 30.05 in 10.0 mi NW 9.2 mph - N/A   Clear
7:35 PM 10.8 °F 2.7 °F 4.1 °F 75% 30.04 in 10.0 mi NW 4.6 mph - N/A   Clear
7:55 PM 8.1 °F -0.5 °F 2.8 °F 79% 30.05 in 10.0 mi NW 4.6 mph - N/A   Clear
8:15 PM 8.4 °F -0.1 °F 3.4 °F 80% 30.05 in 10.0 mi NW 4.6 mph - N/A   Clear
8:35 PM 8.4 °F -0.1 °F 3.2 °F 79% 30.06 in 10.0 mi NW 4.6 mph - N/A   Clear
8:55 PM 6.6 °F -3.7 °F 1.9 °F 81% 30.06 in 10.0 mi NNW 5.8 mph - N/A   Clear
9:15 PM 7.2 °F -4.3 °F 2.7 °F 82% 30.07 in 10.0 mi NW 6.9 mph - N/A   Clear
9:35 PM 7.3 °F -5.2 °F 2.1 °F 79% 30.09 in 10.0 mi WNW 8.1 mph - N/A   Clear
9:55 PM 7.3 °F -5.2 °F 2.7 °F 81% 30.10 in 10.0 mi NW 8.1 mph - N/A   Clear
10:15 PM 5.4 °F -1.7 °F 0.5 °F 80% 30.09 in 10.0 mi NW 3.5 mph - N/A   Clear
10:35 PM 2.7 °F - -1.3 °F 84% 30.08 in 10.0 mi Calm Calm - N/A   Clear
10:55 PM 4.8 °F -4.3 °F 1.8 °F 87% 30.09 in 10.0 mi WSW 4.6 mph - N/A   Clear
11:15 PM 3.6 °F -8.7 °F 0.5 °F 87% 30.09 in 10.0 mi West 6.9 mph - N/A   Clear
11:35 PM 3.2 °F -6.2 °F 0.3 °F 88% 30.08 in 10.0 mi WNW 4.6 mph - N/A   Clear
11:55 PM 3.4 °F - -0.2 °F 85% 30.07 in 10.0 mi Calm Calm - N/A   Clear